Leadville, CO

1:40 PM MDT on September 24, 2017 (GMT -0600)
Lake County

Weather History for KLXV - July, 2013

Change the Weather History Date:

Sunday, July 14, 2013

  Actual Average Record
Temperature  
Mean Temperature 57 °F -  
Max Temperature 71 °F 71 °F 80 °F (2005)
Min Temperature 43 °F 38 °F 30 °F (1987)
Degree Days  
Heating Degree Days 8 11  
Month to date heating degree days 97 160  
Since 1 June heating degree days 468 640  
Since 1 July heating degree days 97 160  
Cooling Degree Days 0 0  
Month to date cooling degree days 0 0  
Year to date cooling degree days 0 0  
Since 1 June cooling degree days 0 0  
Growing Degree Days 7 (Base 50)    
Moisture  
Dew Point 45 °F    
Average Humidity 65    
Maximum Humidity 96    
Minimum Humidity 34    
Precipitation  
Precipitation 0.03 in 0.06 in 0.38 in (2017)
Month to date precipitation 0.61 0.69  
Year to date precipitation 8.07 5.76  
Sea Level Pressure  
Sea Level Pressure 30.20 in    
Wind  
Wind Speed 4 mph (North)    
Max Wind Speed 9 mph    
Max Gust Speed 23 mph    
Visibility 8 miles    
Events Fog , Rain , Thunderstorm    
T = Trace of Precipitation, MM = Missing Value Source: NWS Daily Summary

Daily Weather History Graph

Daily Weather History Graph

Search for Another Location

Airport or City:

Trip Planner

Search our weather history database for the weather conditions in past years. The results will help you decide how hot, cold, wet, or windy it might be!

Date:

Astronomy

Jul. 14, 2013 Rise Set
Actual Time 5:50 AM MDT 8:31 PM MDT
Civil Twilight 5:19 AM MDT 9:02 PM MDT
Nautical Twilight 4:40 AM MDT 9:41 PM MDT
Astronomical Twilight 3:55 AM MDT 10:25 PM MDT
Moon 12:07 PM MDT (7/14) 11:48 PM MDT (7/14)
Length of Visible Light 15h 43m
Length of Day
14h 40m
Waxing Crescent, 35% of the Moon is Illuminated
Jul 14
Waxing Crescent
Jul 15
First Quarter
Jul 22
Full
Jul 29
Last Quarter
Aug 6
New

Hourly Weather History & Observations

Time (MDT) Temp. Windchill Dew Point Humidity Pressure Visibility Wind Dir Wind Speed Gust Speed Precip Events Conditions
12:53 AM 46.9 °F - 42.1 °F 83% 29.99 in 10.0 mi Variable 3.5 mph - N/A   Clear
1:53 AM 48.0 °F - 43.0 °F 83% 29.97 in 10.0 mi Calm Calm - N/A   Clear
2:53 AM 46.9 °F - 43.0 °F 86% 29.99 in 10.0 mi Calm Calm - N/A   Scattered Clouds
3:53 AM 46.0 °F - 42.1 °F 86% 29.99 in 10.0 mi Calm Calm - N/A   Clear
4:53 AM 43.0 °F 41.3 °F 41.0 °F 93% 30.04 in 10.0 mi NNE 3.5 mph - N/A   Clear
5:53 AM 46.9 °F - 42.1 °F 83% 30.03 in 10.0 mi East 4.6 mph - N/A   Clear
6:53 AM 48.0 °F - 43.0 °F 83% 30.02 in 10.0 mi NE 6.9 mph - N/A   Clear
7:53 AM 54.0 °F - 45.0 °F 72% 30.00 in 10.0 mi WNW 3.5 mph - N/A   Mostly Cloudy
8:53 AM 55.9 °F - 46.0 °F 69% 30.01 in 10.0 mi North 4.6 mph - N/A   Overcast
9:53 AM 60.1 °F - 45.0 °F 57% 30.02 in 10.0 mi North 6.9 mph - N/A   Clear
10:53 AM 64.9 °F - 44.1 °F 47% 29.97 in 10.0 mi Calm Calm - N/A   Scattered Clouds
11:07 AM 64.4 °F - 41.0 °F 42% 30.51 in 10.0 mi Calm Calm - N/A Thunderstorm Mostly Cloudy
11:22 AM 68.0 °F - 42.8 °F 40% 30.51 in 10.0 mi Calm Calm - N/A   Mostly Cloudy
11:53 AM 71.1 °F - 41.0 °F 34% 29.94 in 10.0 mi West 9.2 mph - N/A   Scattered Clouds
12:53 PM 66.9 °F - 41.0 °F 39% 29.98 in 10.0 mi Variable 5.8 mph - N/A   Overcast
1:03 PM 66.2 °F - 42.8 °F 43% 30.49 in 10.0 mi Variable 4.6 mph - N/A Thunderstorm Thunderstorm
1:30 PM 59.0 °F - 46.4 °F 63% 30.51 in 8.0 mi NNW 13.8 mph 20.7 mph 0.00 in Rain Light Rain
1:38 PM 55.4 °F - 48.2 °F 77% 30.51 in 2.5 mi NNE 16.1 mph 23.0 mph 0.00 in Rain Rain
1:47 PM 53.6 °F - 48.2 °F 82% 30.50 in 1.8 mi NE 15.0 mph - 0.02 in Rain Light Rain
1:48 PM 53.6 °F - 48.2 °F 82% 30.50 in 2.0 mi NE 15.0 mph - 0.02 in Rain Light Rain
1:53 PM 54.0 °F - 48.9 °F 83% 30.05 in 2.5 mi NE 12.7 mph - 0.03 in Rain Light Rain
2:01 PM 55.4 °F - 48.2 °F 77% 30.49 in 5.0 mi NE 11.5 mph 20.7 mph 0.00 in Rain Light Rain
2:24 PM 60.8 °F - 48.2 °F 63% 30.48 in 10.0 mi ENE 6.9 mph 17.3 mph 0.00 in   Overcast
2:53 PM 66.9 °F - 48.0 °F 51% 29.96 in 10.0 mi Variable 4.6 mph - 0.00 in   Mostly Cloudy
3:53 PM 66.9 °F - 39.9 °F 37% 29.95 in 10.0 mi West 6.9 mph - N/A   Mostly Cloudy
4:34 PM 60.8 °F - 46.4 °F 59% 30.46 in 10.0 mi South 19.6 mph - 0.00 in Rain Light Rain
4:53 PM 57.9 °F - 50.0 °F 75% 30.05 in 6.0 mi West 12.7 mph 19.6 mph 0.00 in Rain Light Rain
5:02 PM 55.4 °F - 48.2 °F 77% 30.49 in 1.8 mi WNW 8.1 mph - 0.02 in Rain , Thunderstorm Rain
5:16 PM 51.8 °F - 50.0 °F 94% 30.51 in 0.5 mi NNE 3.5 mph - 0.17 in Fog , Rain , Thunderstorm Heavy Thunderstorms and Rain